Vorticity
nan nan nan nan nan nan nan nan nan nan nan nan nan nan nan nan nan nan nan nan nan nan nan nan nan nan nan nan nan nan nan nan nan nan nan nan nan nan nan nan nan nan nan nan nan nan nan
nan 7 7 8 9 7 7 7 9 10 10 10 9 6 5 6 6 7 7 13 13 8 10 9 8 10 9 4 14 9 5 4 8 6 5 9 12 10 9 9 5 7 11 11 11 10 nan
nan 8 7 7 8 8 7 8 8 8 8 9 12 12 6 5 6 6 8 10 14 11 8 8 10 9 8 6 3 6 10 7 10 8 7 8 9 7 8 10 8 6 10 16 18 14 nan
nan 10 7 7 7 8 9 9 8 7 8 8 8 12 11 6 5 7 10 13 14 7 7 10 9 9 7 12 9 5 6 12 12 5 5 8 9 8 7 7 9 13 11 11 14 12 nan
nan 9 8 8 7 8 8 9 8 8 8 9 9 9 13 9 6 7 17 23 12 7 10 10 8 8 6 12 15 12 9 11 6 8 8 6 7 8 7 10 9 8 6 3 8 15 nan
nan 7 8 7 8 8 7 8 10 10 10 11 10 9 12 13 7 7 19 22 13 10 12 9 4 6 14 10 8 9 11 9 7 8 8 7 5 6 7 5 2 2 7 6 8 17 nan
nan 8 8 7 8 8 9 10 10 10 11 11 12 11 12 12 7 8 13 13 12 11 12 7 4 1 3 11 10 6 10 8 9 7 8 6 5 5 6 5 3 -1 1 7 13 18 nan
nan 7 8 9 8 8 10 10 11 11 13 13 13 14 13 13 8 11 12 10 6 5 14 12 4 4 5 12 7 13 10 9 8 6 5 7 7 12 10 9 10 8 7 11 15 12 nan
nan 7 8 8 8 9 11 9 10 15 21 24 16 15 17 13 14 13 11 6 5 11 11 17 15 10 12 6 9 12 5 9 8 6 9 8 8 11 12 9 14 12 12 6 5 19 nan
nan 7 8 7 9 11 10 9 9 13 19 24 21 20 16 10 13 10 7 6 13 11 10 9 9 10 11 5 10 7 9 8 10 9 13 6 7 8 8 8 12 11 4 2 10 13 nan
nan 7 6 8 9 11 9 8 8 8 10 12 18 20 13 10 8 7 7 8 12 10 10 8 8 8 9 10 10 7 6 7 8 9 11 7 5 8 7 6 8 6 1 8 12 9 nan
nan 7 5 8 10 10 10 6 8 9 7 9 12 12 13 13 8 7 8 12 13 10 5 10 9 10 6 9 10 8 8 9 9 12 9 10 9 9 7 8 10 10 9 16 16 11 nan
nan 7 5 7 10 9 8 8 6 7 8 10 14 18 15 11 10 8 11 13 11 9 9 7 11 8 9 10 8 8 8 9 8 10 10 15 12 8 7 11 7 12 19 13 11 14 nan
nan 5 6 8 9 9 9 9 6 8 9 11 18 16 16 15 6 7 11 10 8 8 12 11 8 8 12 9 9 8 10 8 7 11 12 8 5 11 11 12 11 7 9 8 9 9 nan
nan 4 6 9 8 7 10 10 9 9 10 14 20 12 5 5 9 12 8 13 9 9 8 10 8 10 10 11 9 9 9 7 7 7 11 6 9 7 11 12 8 12 10 12 8 10 nan
nan 4 5 7 8 8 10 10 11 14 11 18 20 7 2 8 14 11 10 10 6 7 12 13 11 12 11 9 9 10 4 6 7 8 10 9 11 7 9 7 12 16 9 8 12 12 nan
nan 3 5 6 7 8 9 8 14 14 14 27 19 11 2 9 17 9 10 5 6 7 9 9 12 12 11 10 10 10 10 9 7 9 9 13 11 9 10 8 11 9 14 14 13 4 nan
nan 3 6 7 7 8 8 11 9 6 23 28 14 8 8 11 13 9 7 7 7 9 11 10 11 8 7 9 13 13 9 4 9 16 11 9 9 12 5 7 10 10 8 12 8 8 nan
nan 3 5 7 8 7 9 9 9 10 19 19 11 8 10 12 7 8 10 10 9 8 11 10 8 9 10 11 11 9 7 5 10 14 9 11 10 8 7 8 9 7 9 12 10 12 nan
nan 5 5 7 8 7 8 8 10 6 16 22 10 8 10 12 9 7 9 10 10 9 9 9 11 12 9 8 10 12 8 8 10 6 11 15 13 13 11 7 3 2 8 11 12 8 nan
nan 5 5 6 7 7 8 8 10 11 14 15 9 11 11 5 7 10 11 9 8 9 9 10 11 10 14 11 10 9 10 8 7 9 13 10 8 8 8 12 15 11 5 8 11 8 nan
nan 7 4 6 7 8 7 8 7 14 19 14 7 8 12 9 8 10 8 10 10 8 10 12 8 6 14 12 9 8 10 13 10 11 10 10 12 8 9 11 11 13 12 12 8 10 nan
nan 12 3 5 7 7 7 7 8 14 21 11 8 9 10 9 11 12 10 9 10 11 8 10 9 10 6 8 10 13 11 11 13 11 9 12 10 8 10 9 7 12 18 9 10 12 nan
nan 14 4 6 6 7 7 7 8 10 15 14 10 9 8 10 10 10 10 11 10 11 9 5 11 12 5 7 12 12 9 8 7 11 13 10 10 11 10 6 11 13 9 11 11 8 nan
nan 14 6 5 7 7 7 7 6 10 12 12 9 11 9 10 9 8 9 12 9 8 10 9 9 8 10 12 11 8 6 9 8 6 10 12 10 11 13 9 7 14 13 13 9 11 nan
nan 14 9 5 7 8 7 8 8 6 10 12 12 8 8 12 7 10 12 10 10 8 9 9 10 9 13 13 10 10 11 8 5 8 10 11 11 9 8 13 10 10 12 10 8 14 nan
nan 13 10 7 7 8 7 8 7 7 9 9 8 9 12 9 7 12 12 9 10 13 11 9 11 9 10 11 12 8 12 10 10 11 8 7 13 10 9 8 9 18 11 7 9 15 nan
nan 12 12 8 7 8 8 8 8 8 7 8 10 11 8 7 9 9 9 10 10 14 11 8 9 11 9 12 11 11 11 9 11 13 12 8 8 7 8 7 16 12 9 11 8 15 nan
nan nan nan nan nan nan nan nan nan nan nan nan nan nan nan nan nan nan nan nan nan nan nan nan nan nan nan nan nan nan nan nan nan nan nan nan nan nan nan nan nan nan nan nan nan nan nan
CAPE
47 49 37 55 57 43 35 43 49 68 66 61 50 33 22 11 6 2 7 21 4 9 9 8 7 1 0 1 0 0 0 0 0 0 0 9 32 32 12 0 7 1 0 0 0 1 0
44 45 60 53 56 46 44 57 66 58 67 75 75 54 31 12 6 0 1 6 38 18 12 5 12 4 5 0 0 0 0 0 0 0 0 20 29 28 28 0 6 0 4 0 0 0 15
46 61 53 49 57 46 46 46 36 40 44 63 63 82 46 25 9 1 6 4 60 6 3 8 5 8 15 0 0 0 0 0 0 0 0 17 10 7 12 0 0 0 0 1 4 5 28
39 83 68 56 41 49 58 58 64 65 64 59 68 77 103 49 18 0 24 41 26 8 13 9 1 11 1 0 0 0 0 0 0 0 4 2 5 6 5 0 0 0 0 0 0 16 13
50 62 46 65 49 52 50 43 68 68 73 88 93 92 101 87 23 7 77 74 29 27 23 6 0 4 0 0 0 0 0 0 0 1 0 0 0 0 18 26 4 0 0 0 0 0 8
42 47 56 48 34 47 48 65 78 89 104 115 107 105 98 85 14 9 70 56 51 18 3 15 1 0 0 0 0 0 0 0 0 1 0 0 0 0 8 0 0 38 16 9 2 0 0
32 46 42 55 39 40 59 83 105 100 80 110 138 164 137 93 36 30 22 0 3 0 8 0 0 0 0 0 0 0 0 0 0 0 0 0 3 0 0 0 0 3 0 0 0 0 0
43 55 63 44 31 58 83 114 82 85 147 167 155 221 201 72 95 0 25 0 0 0 0 0 0 0 0 0 0 0 0 0 1 0 0 17 0 0 2 27 18 6 1 4 12 0 0
56 57 60 39 28 94 114 123 130 208 243 231 221 269 152 39 74 5 46 30 6 0 0 0 0 0 0 0 0 0 0 0 0 0 0 2 0 14 4 0 0 0 8 3 1 0 0
62 52 63 29 54 96 130 126 179 243 256 161 125 150 76 62 7 12 18 18 5 0 0 0 0 0 0 0 0 0 0 0 0 0 0 0 1 3 0 1 13 0 4 0 0 0 0
62 53 60 33 56 104 110 145 176 165 81 68 68 63 39 36 0 7 54 22 0 0 0 0 0 0 0 0 0 0 0 0 0 0 0 0 0 0 0 0 0 0 0 0 0 0 0
74 29 48 34 61 85 125 53 139 157 123 148 57 45 41 42 20 24 23 9 0 0 0 0 0 0 0 0 0 0 0 0 0 0 0 0 0 0 0 0 1 0 0 0 0 0 0
92 11 37 28 52 55 112 27 90 87 77 141 74 50 4 4 33 0 1 0 3 0 0 0 0 0 0 0 0 0 0 0 0 0 0 0 0 0 0 0 2 0 0 0 2 0 0
45 18 31 8 32 38 17 13 16 23 15 97 99 15 38 8 1 0 0 3 1 2 0 0 0 0 0 0 0 0 0 0 0 0 0 0 0 0 1 0 0 0 7 9 2 2 1
3 17 12 1 15 16 7 16 18 17 0 49 46 0 8 23 0 0 0 0 8 0 0 0 0 0 0 0 0 0 0 0 0 0 0 0 0 0 1 6 8 0 0 0 6 2 0
2 14 2 1 11 5 11 15 14 8 0 1 0 0 2 1 0 0 0 11 0 0 0 0 0 0 0 0 0 0 0 0 0 0 0 0 0 0 0 0 0 0 0 0 0 0 3
8 6 3 0 5 6 5 11 8 0 0 2 1 1 0 0 0 0 1 1 1 0 0 0 0 0 0 0 0 0 0 0 0 0 0 0 0 0 0 1 0 0 0 0 0 0 1
10 0 2 0 2 5 3 2 0 0 0 0 0 1 0 0 0 0 0 0 0 0 0 0 0 0 0 0 0 0 0 0 0 0 0 0 0 0 1 0 0 0 0 0 0 0 0
8 0 0 0 0 1 1 0 0 0 0 0 2 0 0 0 0 0 0 0 0 0 0 0 0 0 0 0 0 0 0 0 0 0 0 0 0 0 0 0 0 0 0 0 0 0 0
8 0 0 0 0 5 0 0 0 0 0 0 0 0 0 0 0 0 0 0 0 0 0 0 0 0 0 0 0 0 0 0 0 0 0 0 0 0 0 0 0 0 0 0 0 0 0
8 0 0 0 0 0 0 0 0 0 0 0 0 1 0 0 0 0 0 0 0 0 0 0 0 0 0 0 0 0 0 0 0 0 0 0 0 0 0 0 0 0 0 0 0 0 0
21 0 0 0 0 0 0 0 0 0 0 0 0 0 0 0 0 0 0 0 0 0 0 0 0 0 0 0 0 0 0 0 0 0 0 0 0 0 0 0 0 0 0 0 0 0 0
25 0 0 0 0 0 0 0 0 0 0 0 0 0 0 0 0 0 0 0 0 0 0 0 0 0 0 0 0 0 0 0 0 0 0 0 0 0 0 0 0 0 0 0 0 0 0
15 3 0 0 0 0 0 0 0 2 0 0 0 0 0 0 0 0 0 0 0 0 0 0 0 0 0 0 0 0 0 0 0 0 0 0 0 0 0 0 0 0 0 0 0 0 0
3 15 0 0 0 0 0 0 0 0 0 0 0 0 0 0 0 0 0 0 0 0 0 0 0 0 0 0 0 0 0 0 0 0 0 0 0 0 0 0 0 0 0 0 0 0 0
0 19 2 0 0 0 0 0 0 0 0 0 0 0 0 0 0 0 0 0 0 0 0 0 0 0 0 0 0 0 0 0 0 0 0 0 0 0 0 0 0 0 0 0 0 0 0
11 12 8 0 0 0 0 0 0 0 0 0 0 0 0 0 0 0 0 0 0 0 0 0 0 0 0 0 0 0 0 0 0 0 0 0 0 0 0 0 0 0 0 0 0 0 0
20 4 6 0 0 0 0 1 0 0 1 0 0 0 0 0 0 0 0 0 0 0 0 0 0 0 0 0 0 0 0 0 0 0 0 0 0 0 0 0 0 0 0 0 0 0 0
17 11 3 0 0 0 0 0 4 0 14 0 0 0 0 0 0 0 0 0 0 0 0 0 0 0 0 0 0 0 0 0 0 0 0 0 0 0 0 0 0 0 0 0 0 0 0